User: anonymous   Login
Location: Il Ritiro
(43.4167°N, 13.1333°E)
Time: 07:03:49
(UTC+00:00)
Language:

COSMOS 2428 - Orbit

View from above orbital plane
View from above orbital plane
View from above satellite
View from above satellite

Ground track
Ground track

The orbit data is extracted from the following two-line orbital elements,

1 31792U 07029A   20273.68189638 -.00000326 +00000-0 -15106-3 0  9992
2 31792 070.9012 054.0382 0010680 278.2113 081.7796 14.12275378683492
Epoch (UTC): 29 September 2020 16:21:55
Eccentricity: 0.0010680
inclination: 70.9012°
perigee height: 844 km
apogee height: 859 km
right ascension of ascending node: 54.0382°
argument of perigee: 278.2113°
revolutions per day: 14.12275378
mean anomaly at epoch: 81.7796°
orbit number at epoch: 68349

The dashed part of the orbit path shows where the satellite is in the earth's shadow,  

DLR